Location: Alincthun
(50.7310°N, 1.8022°E)
Time: 09:11:58
(UTC+00:00)

STARLINK-1142 - Pass Details

Date: 17 February 2020
Orbit: 375 x 384 km, 53.0° (Epoch: 28 March)

Event Time Altitude Azimuth Distance (km) Brightness Sun altitude
Exits shadow 03:35:30 - 72° (ENE) 1,628 6.9 -32.9°
Enters shadow 04:31:28 -67° 257° (WSW) 12,176 10.4 -24.4°
Maximum altitude 05:07:47 55° 355° (N) 469 3.2 -18.7°
